C/2015 T2 ( PanSTARRS )

Japanese version
Home page
Updated on December 25, 2016

---------------------------------------------------------------------

* Profile

Discovery Date October 9, 2015
Magnitude 21.8 mag
Discoverer Pan-STARRS 1 telescope (Haleakala)

* Pictures

* Orbital Elements

Epoch 2017 May 7.0 TT = JDT 2457880.5
T 2017 May 20.41562 TT                                  MPCW
q   6.9354661            (2000.0)            P               Q
z  -0.0000473      Peri.   30.75956     +0.76566910     +0.05759362
 +/-0.0000009      Node    51.06045     +0.27843003     -0.92751592
e   1.0003279      Incl.  124.54706     +0.57985132     +0.36931990
From 119 observations 2015 Oct. 9-2016 Nov. 10, mean residual 0".4.

* Magnitudes Graph

        m1 = 7.0 + 5 log d + 10.0 log r

---------------------------------------------------------------------

The orbital elements are published on M.P.E.C. 2016-V116.
The magnitudes graphs are made with Comet for Windows.

---------------------------------------------------------------------

Copyright(C) Seiichi Yoshida (comet@aerith.net). All rights reserved.